Regional Weather Roundup
Issued by NWS

Home | Current Version | Previous Version | Text Only | Print | Product List | Glossary On
Versions: 1 2 3 4 5 6 7 8 9 10 11 12 13 14 15 16 17 18 19 20 21 22 23 24 25 26 27 28 29 30 31 32 33 34 35 36 37 38 39 40 41 42 43 44 45 46 47 48 49 50
000
ASUS43 KLSX 252107
RWRMO

WEATHER SUMMARY FOR MISSOURI
NATIONAL WEATHER SERVICE SPRINGFIELD MO
400 PM CDT SAT OCT 25 2014

NOTE: "FAIR" INDICATES FEW OR NO CLOUDS BELOW 12,000 FEET WITH NO
       SIGNIFICANT WEATHER AND/OR OBSTRUCTIONS TO VISIBILITY.
       CURRENT SKY AND/OR WEATHER CONDITIONS ARE NOT AVAILABLE FOR
       CHILLICOTHE AND FARMINGTON.

MOZ001>031-035>038-043-044-053-054-252200-
...NORTHERN AND WESTERN MISSOURI...

CITY           SKY/WX    TMP DP  RH WIND       PRES   REMARKS
KANSAS CTY INT SUNNY     79  55  43 CALM      30.03F
KANSAS C DTWN  SUNNY     82  55  39 VRB3      30.02S
LEE`S SUMMIT   SUNNY     80  58  46 CALM      30.04S
ST JOSEPH      SUNNY     80  47  31 E3        30.03F
CHILLICOTHE      N/A     79  51  37 VRB3      30.03F
KIRKSVILLE     SUNNY     78  51  38 N5        30.05S

$$
MOZ066>068-077>081-088>096-101>105-252200-
...SOUTHWEST MISSOURI...

CITY           SKY/WX    TMP DP  RH WIND       PRES   REMARKS
SPRINGFIELD    SUNNY     83  61  47 CALM      30.03F
JOPLIN         SUNNY     82  64  54 W6        30.04S

$$
MOZ032>034-039>042-045>050-055>058-069>072-252200-
...CENTRAL MISSOURI...

CITY           SKY/WX    TMP DP  RH WIND       PRES   REMARKS
COLUMBIA       SUNNY     79  60  52 S3        30.02F
JEFFERSON CITY SUNNY     81  51  35 VRB3      30.00F
ROLLA          SUNNY     79  60  52 N5        30.02F
SEDALIA        SUNNY     81  60  48 CALM      30.04S
WHITEMAN AFB   SUNNY     78  62  58 MISG      30.02F
OSAGE BEACH    SUNNY     81  59  47 SW6       30.03S

$$
MOZ051-052-059>065-252200-
...EAST CENTRAL MISSOURI...

CITY           SKY/WX    TMP DP  RH WIND       PRES   REMARKS
ST LOUIS INTL  MOSUNNY   82  55  39 W8        30.01F
SPIRIT OF STL  SUNNY     80  52  37 N5        30.00S
ST CHARLES     SUNNY     80  46  30 NW8       30.00S HAZE

$$
MOZ072>076-082>087-097>100-106>115-252200-
...SOUTH CENTRAL AND SOUTHEAST MISSOURI...

CITY           SKY/WX    TMP DP  RH WIND       PRES   REMARKS
CAPE GIRARDEAU SUNNY     81  59  47 NW5       29.99F
FARMINGTON     SUNNY     81  55  41 CALM      30.04S
POPLAR BLUFF   SUNNY     82  63  52 W5        29.99S
WEST PLAINS    SUNNY     82  62  50 SW6       30.04S

$$



USA.gov is the U.S. government's official web portal to all federal, state and local government web resources and services.